Location: Recife
(8.0585°S, 34.8848°W)
Time: 12:54:17
(UTC-03:00)

Vanguard 1 - Pass Details

Date: 17 April 2026
Orbit: 654 x 3817 km, 34.3° (Epoch: 11 May)

Event Time Altitude Azimuth Distance (km) Brightness Sun altitude
Rises 17:01:22 0° 227° (SW) 4,560 14.1 2.8°
Reaches altitude 10° 17:03:52 10° 224° (SW) 3,882 13.6 2.2°
Maximum altitude 17:14:46 65° 142° (SE) 2,644 12.1 -0.5°
Drops below altitude 10° 17:34:29 10° 64° (ENE) 6,588 13.8 -5.3°
Sets 17:40:17 0° 61° (ENE) 7,832 14.2 -6.7°
